| time (UTC) | temp F | wind direction | speed knots | gust knots | rain 1hr in | rain 24hr in | rain mn in | humidity % | barometer mb |
| 20260509023036 | 54 | 207 | 2.6 | 10.4 | 0.15 | 0.29 | 0.29 | 92 | 1011.5 |
| 20260509021530 | 54 | 205 | 3.5 | 8.7 | 0.15 | 0.26 | 0.26 | 92 | 1011.6 |
| 20260509020032 | 54 | 194 | 4.3 | 9.6 | 0.14 | 0.21 | 0.21 | 92 | 1011.4 |
| 20260509014530 | 54 | 186 | 4.3 | 7.8 | 0.11 | 0.17 | 0.17 | 91 | 1011.1 |
| 20260509013031 | 54 | 215 | 1.7 | 7.8 | 0.09 | 0.14 | 0.14 | 91 | 1011.0 |
| 20260509011530 | 54 | 269 | 1.7 | 6.1 | 0.08 | 0.11 | 0.11 | 90 | 1011.1 |
| 20260509010031 | 54 | 210 | 0.0 | 3.5 | 0.05 | 0.07 | 0.07 | 89 | 1010.7 |
| 20260509004537 | 54 | 210 | 1.7 | 4.3 | 0.05 | 0.06 | 0.06 | 89 | 1010.6 |
| 20260509003029 | 54 | 232 | 3.5 | 7.0 | 0.05 | 0.05 | 0.05 | 88 | 1010.8 |
| 20260509001530 | 54 | 243 | 2.6 | 6.1 | 0.03 | 0.03 | 0.03 | 86 | 1010.9 |
| 20260509000038 | 55 | 251 | 1.7 | 6.1 | 0.02 | 0.02 | 0.02 | 85 | 1010.8 |
| 20260508234536 | 56 | 234 | 2.6 | 8.7 | 0.01 | 0.01 | 0.01 | 82 | 1010.9 |
| 20260508233030 | 57 | 276 | 1.7 | 9.6 | 0.00 | 0.00 | 0.00 | 81 | 1010.8 |
| 20260508231528 | 58 | 271 | 3.5 | 9.6 | 0.00 | 0.00 | 0.00 | 76 | 1010.9 |
| 20260508230027 | 59 | 250 | 1.7 | 10.4 | 0.00 | 0.00 | 0.00 | 74 | 1010.6 |
| 20260508224530 | 59 | 240 | 2.6 | 8.7 | 0.00 | 0.00 | 0.00 | 73 | 1010.7 |
| 20260508223034 | 60 | 218 | 4.3 | 9.6 | 0.00 | 0.00 | 0.00 | 70 | 1010.4 |
| 20260508221531 | 61 | 219 | 3.5 | 8.7 | 0.00 | 0.00 | 0.00 | 65 | 1010.3 |
| 20260508220030 | 62 | 202 | 2.6 | 5.2 | 0.00 | 0.00 | 0.00 | 64 | 1009.9 |
| 20260508214530 | 62 | 207 | 2.6 | 7.8 | 0.00 | 0.00 | 0.00 | 62 | 1009.9 |
| 20260508213029 | 62 | 194 | 3.5 | 9.6 | 0.00 | 0.00 | 0.00 | 60 | 1010.2 |
| 20260508211527 | 63 | 205 | 2.6 | 7.0 | 0.00 | 0.00 | 0.00 | 62 | 1010.3 |
| 20260508210028 | 63 | 198 | 3.5 | 7.8 | 0.00 | 0.00 | 0.00 | 62 | 1010.5 |
| 20260508204533 | 63 | 175 | 2.6 | 6.1 | 0.00 | 0.00 | 0.00 | 61 | 1010.5 |
| 20260508203031 | 62 | 184 | 3.5 | 7.0 | 0.00 | 0.00 | 0.00 | 63 | 1010.9 |
| 20260508201530 | 62 | 198 | 4.3 | 12.2 | 0.00 | 0.00 | 0.00 | 62 | 1011.1 |
| 20260508200031 | 63 | 171 | 5.2 | 9.6 | 0.00 | 0.00 | 0.00 | 61 | 1011.3 |
| 20260508194555 | 62 | 198 | 6.1 | 14.8 | 0.00 | 0.00 | 0.00 | 61 | 1011.5 |
| 20260508193028 | 62 | 177 | 6.1 | 13.0 | 0.00 | 0.00 | 0.00 | 62 | 1011.6 |
| 20260508191528 | 62 | 175 | 5.2 | 10.4 | 0.00 | 0.00 | 0.00 | 62 | 1011.9 |
| 20260508190029 | 62 | 232 | 5.2 | 11.3 | 0.00 | 0.00 | 0.00 | 65 | 1012.1 |
| 20260508184533 | 62 | 192 | 9.6 | 19.1 | 0.00 | 0.00 | 0.00 | 61 | 1012.1 |
| 20260508183028 | 62 | 187 | 8.7 | 16.5 | 0.00 | 0.00 | 0.00 | 59 | 1012.2 |
| 20260508181547 | 63 | 213 | 7.8 | 13.9 | 0.00 | 0.00 | 0.00 | 61 | 1012.1 |
| 20260508180031 | 64 | 214 | 7.8 | 14.8 | 0.00 | 0.00 | 0.00 | 63 | 1012.2 |
| 20260508174527 | 63 | 203 | 7.8 | 14.8 | 0.00 | 0.00 | 0.00 | 65 | 1012.6 |
| 20260508173037 | 61 | 188 | 7.8 | 13.0 | 0.00 | 0.00 | 0.00 | 63 | 1013.0 |
| 20260508171533 | 61 | 179 | 10.4 | 18.2 | 0.00 | 0.00 | 0.00 | 62 | 1013.4 |
| 20260508170030 | 61 | 200 | 7.0 | 15.6 | 0.00 | 0.00 | 0.00 | 65 | 1013.4 |
| 20260508164532 | 61 | 187 | 5.2 | 12.2 | 0.00 | 0.00 | 0.00 | 64 | 1013.7 |
| 20260508163030 | 61 | 266 | 7.0 | 13.0 | 0.00 | 0.00 | 0.00 | 64 | 1014.0 |
| 20260508161531 | 62 | 245 | 10.4 | 18.2 | 0.00 | 0.00 | 0.00 | 61 | 1014.1 |
| 20260508160032 | 63 | 209 | 8.7 | 18.2 | 0.00 | 0.00 | 0.00 | 62 | 1014.0 |
| 20260508154532 | 63 | 196 | 8.7 | 15.6 | 0.00 | 0.00 | 0.00 | 60 | 1014.3 |
| 20260508153041 | 62 | 254 | 10.4 | 16.5 | 0.00 | 0.00 | 0.00 | 61 | 1014.2 |
| 20260508151532 | 61 | 219 | 10.4 | 16.5 | 0.00 | 0.00 | 0.00 | 62 | 1014.1 |
| 20260508150029 | 61 | 184 | 5.2 | 19.1 | 0.00 | 0.00 | 0.00 | 63 | 1014.3 |
| 20260508144530 | 60 | 257 | 5.2 | 13.9 | 0.00 | 0.00 | 0.00 | 66 | 1014.5 |
| 20260508143030 | 59 | 209 | 7.8 | 17.4 | 0.00 | 0.00 | 0.00 | 63 | 1014.4 |
| 20260508141530 | 58 | 238 | 4.3 | 13.0 | 0.00 | 0.00 | 0.00 | 64 | 1014.6 |
| 20260508140029 | 57 | 209 | 7.8 | 15.6 | 0.00 | 0.00 | 0.00 | 66 | 1014.7 |
| 20260508134531 | 56 | 191 | 7.0 | 14.8 | 0.00 | 0.00 | 0.00 | 65 | 1014.6 |
| 20260508133034 | 56 | 261 | 5.2 | 13.0 | 0.00 | 0.00 | 0.00 | 65 | 1014.7 |
| 20260508131530 | 55 | 241 | 4.3 | 11.3 | 0.00 | 0.00 | 0.00 | 69 | 1014.9 |
| 20260508130029 | 54 | 272 | 3.5 | 11.3 | 0.00 | 0.00 | 0.00 | 68 | 1015.0 |
| 20260508124530 | 53 | 205 | 5.2 | 8.7 | 0.00 | 0.00 | 0.00 | 68 | 1014.8 |
| 20260508123030 | 52 | 185 | 5.2 | 8.7 | 0.00 | 0.00 | 0.00 | 70 | 1014.7 |
| 20260508121527 | 51 | 196 | 4.3 | 9.6 | 0.00 | 0.00 | 0.00 | 70 | 1014.6 |
| 20260508120029 | 50 | 188 | 6.1 | 12.2 | 0.00 | 0.00 | 0.00 | 71 | 1014.5 |
| 20260508114528 | 49 | 180 | 6.1 | 10.4 | 0.00 | 0.00 | 0.00 | 72 | 1014.5 |
| 20260508113031 | 47 | 178 | 4.3 | 8.7 | 0.00 | 0.00 | 0.00 | 76 | 1014.2 |
| 20260508111529 | 45 | 173 | 3.5 | 6.1 | 0.00 | 0.00 | 0.00 | 78 | 1014.3 |
| 20260508110027 | 45 | 178 | 3.5 | 6.1 | 0.00 | 0.00 | 0.00 | 78 | 1014.4 |
| 20260508104528 | 45 | 192 | 3.5 | 6.1 | 0.00 | 0.00 | 0.00 | 78 | 1014.2 |
| 20260508103029 | 46 | 176 | 3.5 | 6.1 | 0.00 | 0.00 | 0.00 | 76 | 1014.2 |
| 20260508101530 | 47 | 180 | 2.6 | 5.2 | 0.00 | 0.00 | 0.00 | 74 | 1014.2 |
| 20260508100027 | 48 | 186 | 3.5 | 7.0 | 0.00 | 0.00 | 0.00 | 72 | 1014.2 |
| 20260508094527 | 48 | 196 | 2.6 | 7.8 | 0.00 | 0.00 | 0.00 | 73 | 1014.1 |
| 20260508093026 | 48 | 188 | 3.5 | 6.1 | 0.00 | 0.00 | 0.00 | 72 | 1014.3 |
| 20260508091529 | 48 | 190 | 3.5 | 7.0 | 0.00 | 0.00 | 0.00 | 72 | 1014.3 |
| 20260508090032 | 48 | 184 | 2.6 | 7.0 | 0.00 | 0.00 | 0.00 | 72 | 1014.3 |
| 20260508084530 | 48 | 198 | 3.5 | 7.0 | 0.00 | 0.00 | 0.00 | 72 | 1014.4 |
| 20260508083029 | 48 | 219 | 3.5 | 7.8 | 0.00 | 0.00 | 0.00 | 71 | 1014.3 |
| 20260508081533 | 49 | 208 | 4.3 | 7.8 | 0.00 | 0.00 | 0.00 | 72 | 1014.3 |
| 20260508080031 | 49 | 192 | 4.3 | 8.7 | 0.00 | 0.00 | 0.00 | 72 | 1014.1 |
| 20260508074530 | 48 | 207 | 3.5 | 7.8 | 0.00 | 0.00 | 0.00 | 75 | 1014.4 |
| 20260508073028 | 49 | 219 | 5.2 | 8.7 | 0.00 | 0.00 | 0.00 | 72 | 1014.4 |
| 20260508071533 | 48 | 216 | 2.6 | 5.2 | 0.00 | 0.00 | 0.00 | 73 | 1014.6 |
| 20260508070032 | 48 | 185 | 2.6 | 6.1 | 0.00 | 0.00 | 0.00 | 70 | 1014.4 |
| 20260508064528 | 48 | 190 | 2.6 | 6.1 | 0.00 | 0.00 | 0.00 | 71 | 1014.7 |
| 20260508063028 | 48 | 194 | 2.6 | 6.1 | 0.00 | 0.00 | 0.00 | 71 | 1014.8 |
| 20260508061530 | 47 | 188 | 1.7 | 4.3 | 0.00 | 0.00 | 0.00 | 71 | 1014.9 |
| 20260508060030 | 47 | 188 | 1.7 | 4.3 | 0.00 | 0.00 | 0.00 | 71 | 1014.7 |
| 20260508054540 | 47 | 217 | 1.7 | 4.3 | 0.00 | 0.00 | 0.00 | 71 | 1015.1 |
| 20260508053032 | 47 | 180 | 1.7 | 4.3 | 0.00 | 0.00 | 0.00 | 70 | 1015.1 |
| 20260508051531 | 47 | 190 | 1.7 | 5.2 | 0.00 | 0.00 | 0.00 | 71 | 1015.1 |
| 20260508050029 | 47 | 201 | 2.6 | 5.2 | 0.00 | 0.00 | 0.00 | 71 | 1015.0 |
| 20260508044530 | 47 | 179 | 2.6 | 5.2 | 0.00 | 0.00 | 0.00 | 71 | 1015.0 |
| 20260508043029 | 48 | 177 | 2.6 | 5.2 | 0.00 | 0.00 | 0.00 | 70 | 1015.1 |
| 20260508041531 | 48 | 188 | 1.7 | 5.2 | 0.00 | 0.00 | 0.00 | 69 | 1015.0 |
| 20260508040031 | 48 | 196 | 0.9 | 3.5 | 0.00 | 0.00 | 0.00 | 69 | 1014.9 |
| 20260508034538 | 49 | 190 | 0.9 | 3.5 | 0.00 | 0.00 | 0.00 | 68 | 1014.9 |
| 20260508033030 | 50 | 188 | 2.6 | 7.0 | 0.00 | 0.00 | 0.00 | 67 | 1014.9 |
| 20260508031528 | 49 | 190 | 2.6 | 6.1 | 0.00 | 0.00 | 0.00 | 68 | 1014.8 |
| 20260508030030 | 50 | 178 | 2.6 | 4.3 | 0.00 | 0.00 | 0.00 | 66 | 1014.9 |
| 20260508024534 | 49 | 182 | 0.9 | 2.6 | 0.00 | 0.00 | 0.00 | 68 | 1014.9 |